Location: Niedergestelen
(46.3129°N, 7.7822°E)
Time: 14:42:13
(UTC+00:00)

Cosmos 1633 Rocket - Pass Details

Date: 01 December 2020
Orbit: 607 x 623 km, 82.5° (Epoch: 28 January)

Event Time Altitude Azimuth Distance (km) Brightness Sun altitude
Rises 16:23:59 0° 355° (N) 2,897 6.3 -6.9°
Reaches altitude 10° 16:26:17 10° 1° (N) 1,984 5.4 -7.3°
Maximum altitude 16:30:34 51° 78° (ENE) 776 3.2 -7.9°
Drops below altitude 10° 16:34:47 10° 154° (SSE) 1,959 5.6 -8.6°
Sets 16:37:02 0° 160° (SSE) 2,857 6.5 -9.0°
